TimeCDT,TemperatureF,Dew PointF,Humidity,Sea Level PressureIn,VisibilityMPH,Wind Direction,Wind SpeedMPH,Gust SpeedMPH,PrecipitationIn,Events,Conditions,WindDirDegrees,DateUTC
12:53 AM,86.0,63.0,46,30.09,10.0,SE,13.8,-,N/A,,Clear,130,2013-08-26 05:53:00
1:53 AM,82.9,66.0,56,30.09,10.0,SE,10.4,-,N/A,,Clear,140,2013-08-26 06:53:00
2:53 AM,82.0,66.9,60,30.09,10.0,SE,10.4,-,N/A,,Clear,140,2013-08-26 07:53:00
3:53 AM,79.0,66.9,66,30.10,10.0,SE,6.9,-,N/A,,Clear,140,2013-08-26 08:53:00
4:53 AM,79.0,66.9,66,30.10,10.0,SE,8.1,-,N/A,,Clear,140,2013-08-26 09:53:00
5:53 AM,78.1,66.9,68,30.11,10.0,SE,8.1,-,N/A,,Clear,140,2013-08-26 10:53:00
6:53 AM,75.9,66.9,74,30.12,10.0,ESE,4.6,-,N/A,,Clear,120,2013-08-26 11:53:00
7:53 AM,78.1,69.1,74,30.14,10.0,SE,8.1,-,N/A,,Clear,130,2013-08-26 12:53:00
8:53 AM,81.0,68.0,65,30.14,10.0,SSE,13.8,-,N/A,,Partly Cloudy,150,2013-08-26 13:53:00
9:53 AM,84.0,66.9,56,30.14,10.0,SE,15.0,-,N/A,,Partly Cloudy,140,2013-08-26 14:53:00
10:53 AM,87.1,66.0,49,30.14,10.0,SE,17.3,-,N/A,,Partly Cloudy,130,2013-08-26 15:53:00
11:53 AM,89.1,66.0,46,30.14,10.0,SE,16.1,-,N/A,,Partly Cloudy,140,2013-08-26 16:53:00
12:53 PM,91.0,64.9,42,30.12,10.0,ESE,10.4,19.6,N/A,,Scattered Clouds,120,2013-08-26 17:53:00
1:53 PM,93.9,63.0,36,30.09,10.0,SE,17.3,21.9,N/A,,Scattered Clouds,130,2013-08-26 18:53:00
2:53 PM,95.0,61.0,32,30.06,10.0,SE,13.8,23.0,N/A,,Scattered Clouds,130,2013-08-26 19:53:00
3:53 PM,95.0,59.0,30,30.04,10.0,SE,10.4,23.0,N/A,,Scattered Clouds,130,2013-08-26 20:53:00
4:53 PM,95.0,59.0,30,30.02,10.0,East,13.8,23.0,N/A,,Mostly Cloudy,100,2013-08-26 21:53:00
5:53 PM,96.1,59.0,29,30.02,10.0,ESE,12.7,-,N/A,,Mostly Cloudy,120,2013-08-26 22:53:00
6:53 PM,93.0,60.1,33,30.02,10.0,ESE,12.7,19.6,N/A,,Scattered Clouds,120,2013-08-26 23:53:00
7:53 PM,91.0,60.1,35,30.02,10.0,SE,13.8,-,N/A,,Partly Cloudy,140,2013-08-27 00:53:00
8:53 PM,87.1,59.0,39,30.03,10.0,SE,8.1,-,N/A,,Partly Cloudy,130,2013-08-27 01:53:00
9:53 PM,84.0,66.0,55,30.04,10.0,SSE,11.5,-,N/A,,Partly Cloudy,160,2013-08-27 02:53:00
10:53 PM,82.0,66.9,60,30.05,10.0,South,9.2,-,N/A,,Partly Cloudy,180,2013-08-27 03:53:00
11:53 PM,80.1,68.0,67,30.05,10.0,SSE,10.4,-,N/A,,Partly Cloudy,160,2013-08-27 04:53:00